[[{"header":{"parameterUnit":"m.s-1","parameterCategory":1,"la1":30.2991,"la2":30.254,"lo1":-89.0895,"lo2":-89.0444,"dy":0.0017,"dx":0.0017,"nx":28,"ny":28,"refTime":"2025-01-04T09:00:00:Z","depth":0,"parameterNumber":2,"parameterNumberName":"U-component_of_WINDS"},"data":[0,0,0,0,0,0,0,0,0,0,0,0,0,0,0,0,0,0,0,0,0,0,0,0,0,0,0,0,0,0,0,0,0,0,0,0,0,0,0,0,0,0,0,0,0,0,0,0,0,0,0,0,0,0,0,0,0,0,-3.7008,-3.7009,0,-3.7124,-3.7125,-3.7126,-3.7177,-3.7177,-3.7176,-3.7176,-3.7293,-3.7296,-3.7299,0,0,0,0,0,0,0,0,0,0,0,0,0,-3.6828,-3.6831,-3.7008,-3.7009,-3.7011,-3.7124,-3.7125,-3.7127,-3.7177,-3.7177,-3.7176,-3.7176,-3.7292,-3.7296,-3.73,0,0,0,0,0,0,0,0,0,0,0,0,0,-3.6921,-3.6832,-3.7008,-3.7049,-3.7054,-3.7123,-3.7125,-3.7127,-3.7177,-3.7176,-3.7176,-3.7176,-3.7291,-3.7295,-3.73,-3.7336,0,0,-3.7315,-3.7317,0,0,0,0,0,0,0,0,-3.6916,-3.6928,-3.7042,-3.7047,-3.7052,-3.7136,-3.7105,-3.7197,-3.7177,-3.713,-3.7176,-3.7176,-3.7241,-3.725,-3.7272,-3.7341,-3.7346,-3.7316,-3.7319,-3.7321,-3.7322,0,0,0,0,0,0,0,-3.6909,-3.6923,-3.7054,-3.7043,-3.705,-3.7062,-3.7075,-3.7122,-3.7185,-3.7134,-3.7138,-3.7151,-3.7243,-3.7267,-3.7275,-3.7348,-3.7316,-3.732,-3.7323,-3.7325,-3.7452,-3.7452,0,0,0,0,0,0,-3.6896,-3.6917,-3.705,-3.7057,-3.6982,-3.7065,-3.708,-3.7109,-3.7185,-3.7196,-3.7151,-3.7153,-3.7259,-3.7269,-3.7279,-3.7326,-3.7321,-3.7325,-3.7328,-3.7452,-3.7452,-3.7453,0,0,0,0,0,0,-3.6892,-3.6907,-3.7045,-3.6988,-3.7007,-3.7068,-3.7101,-3.7111,-3.7135,-3.7198,-3.7209,-3.7164,-3.7259,-3.7272,-3.7322,-3.7331,-3.7328,-3.7332,-3.7451,-3.7452,-3.7452,-3.7419,0,0,0,0,0,0,-3.6887,-3.6906,-3.692,-3.6988,-3.701,-3.7086,-3.7102,-3.7114,-3.7144,-3.7147,-3.7213,-3.7224,-3.726,-3.7314,-3.7326,-3.7337,-3.7336,-3.7451,-3.7451,-3.7452,-3.742,-3.7419,-3.7418,0,0,0,0,0,-3.688,-3.6906,-3.6921,-3.6937,-3.7029,-3.7086,-3.7099,-3.714,-3.7144,-3.7159,-3.72,-3.7222,-3.7328,-3.7318,-3.7333,-3.7346,-3.745,-3.7451,-3.7452,-3.742,-3.7419,-3.7418,0,0,0,0,0,0,-3.6837,-3.6916,-3.6933,-3.6982,-3.7027,-3.7095,-3.7115,-3.7138,-3.7182,-3.7184,-3.7233,-3.7247,-3.7292,-3.7324,-3.7312,-3.7384,-3.7391,-3.7395,-3.7362,-3.7361,-3.736,-3.7351,-3.734,0,0,0,0,0,-3.6834,-3.6874,-3.694,-3.6977,-3.6999,-3.7053,-3.7079,-3.7108,-3.7156,-3.7175,-3.7219,-3.7265,-3.7309,-3.7337,-3.738,-3.7425,-3.744,-3.744,-3.7439,-3.7438,-3.7441,-3.7467,-3.7468,-3.7456,-3.7456,-3.7456,0,0,-3.6826,-3.6874,-3.6897,-3.697,-3.7008,-3.7048,-3.7069,-3.711,-3.714,-3.7182,-3.7231,-3.7264,-3.7319,-3.7365,-3.7388,-3.7393,-3.7448,-3.744,-3.7438,-3.7442,-3.7468,-3.7469,-3.747,-3.7457,-3.7456,-3.7456,0,0,-3.6834,-3.6874,-3.6909,-3.6947,-3.7005,-3.7041,-3.7049,-3.7113,-3.7138,-3.7188,-3.7219,-3.7255,-3.733,-3.7367,-3.7396,-3.7417,-3.7438,-3.7429,-3.7424,-3.7448,-3.7449,-3.7451,-3.7458,-3.746,-3.7432,-3.7432,-3.7432,0,-3.6817,-3.688,-3.6924,-3.6964,-3.6995,-3.7035,-3.707,-3.7104,-3.7173,-3.7193,-3.7198,-3.7292,-3.7332,-3.7388,-3.7393,-3.7415,-3.7425,-3.7422,-3.7446,-3.7447,-3.7449,-3.7457,-3.7459,-3.743,-3.7431,-3.7431,-3.7431,0,-3.6857,-3.6899,-3.692,-3.6986,-3.702,-3.7057,-3.7106,-3.7135,-3.716,-3.7195,-3.7245,-3.7293,-3.7348,-3.7363,-3.7388,-3.7422,-3.7424,-3.7436,-3.7444,-3.7448,-3.7456,-3.7459,-3.7428,-3.7429,-3.7429,-3.743,0,0,-3.6841,-3.6931,-3.6938,-3.6968,-3.7034,-3.7068,-3.7107,-3.716,-3.7183,-3.7229,-3.7263,-3.7325,-3.7337,-3.7369,-3.7399,-3.742,-3.7433,-3.743,-3.7432,-3.7429,-3.7474,-3.7464,-3.7467,-3.7448,-3.7449,-3.7449,-3.747,0,-3.6857,-3.6929,-3.697,-3.7025,-3.7065,-3.7102,-3.7136,-3.718,-3.7213,-3.7252,-3.7288,-3.7331,-3.7344,-3.7364,-3.7387,-3.7427,-3.7443,-3.7426,-3.7479,-3.7481,-3.7465,-3.7471,-3.7461,-3.7478,-3.7473,-3.7473,-3.7474,0,-3.6886,-3.6932,-3.6991,-3.7052,-3.7071,-3.71,-3.7152,-3.7188,-3.7239,-3.7262,-3.7298,-3.7327,-3.7369,-3.7373,-3.7431,-3.7419,-3.7443,-3.7465,-3.7467,-3.7474,-3.7477,-3.7478,-3.7484,-3.7486,-3.7479,-3.7479,-3.7478,0,-3.6869,-3.6945,-3.699,-3.7014,-3.7088,-3.7107,-3.7139,-3.7189,-3.7218,-3.7264,-3.7283,-3.7332,-3.7359,-3.7396,-3.7438,-3.7437,-3.7492,-3.75,-3.7512,-3.751,-3.7522,-3.752,-3.7532,-3.7537,-3.7537,-3.7537,-3.7537,0,-3.6883,-3.6917,-3.6983,-3.701,-3.705,-3.7096,-3.7134,-3.7168,-3.7212,-3.7247,-3.7282,-3.7314,-3.7367,-3.7404,-3.7437,-3.748,-3.7492,-3.7511,-3.752,-3.7508,-3.7506,-3.7525,-3.7525,-3.7537,-3.7537,-3.7537,-3.7537,0,-3.687,-3.6915,-3.6967,-3.7032,-3.7049,-3.7075,-3.713,-3.7158,-3.7193,-3.7237,-3.725,-3.7305,-3.7351,-3.7396,-3.7458,-3.748,-3.7523,-3.7534,-3.7506,-3.7511,-3.752,-3.7518,-3.7544,-3.755,-3.7551,-3.7551,-3.755,0,-3.6876,-3.6903,-3.6971,-3.6997,-3.7028,-3.7069,-3.7099,-3.7145,-3.7175,-3.7234,-3.7255,-3.7304,-3.7346,-3.7419,-3.7464,-3.7511,-3.7524,-3.7529,-3.7531,-3.7519,-3.7524,-3.7522,-3.7525,-3.7528,-3.7528,-3.7528,-3.7528,0,-3.6882,-3.6903,-3.6945,-3.6995,-3.703,-3.7072,-3.7115,-3.7134,-3.7188,-3.722,-3.7268,-3.73,-3.7364,-3.7412,-3.7465,-3.7497,-3.7521,-3.7527,-3.7532,-3.7521,-3.7504,-3.7513,-3.7503,-3.7526,-3.7526,-3.7526,-3.7526,-3.7526,-3.6879,-3.6905,-3.6957,-3.7003,-3.704,-3.7079,-3.7108,-3.7147,-3.7188,-3.7244,-3.7268,-3.7317,-3.7366,-3.744,-3.7471,-3.7509,-3.7515,-3.7523,-3.7525,-3.7526,-3.7524,-3.7497,-3.7519,-3.7519,-3.7519,-3.7519,-3.752,0,-3.6887,-3.6922,-3.6963,-3.7022,-3.7058,-3.7078,-3.7126,-3.7155,-3.7197,-3.7242,-3.7282,-3.7337,-3.7384,-3.7433,-3.7482,-3.7504,-3.7516,-3.7515,-3.7514,-3.7521,-3.7516,-3.7506,-3.7504,-3.7504,-3.7504,-3.7504,-3.7504,-3.7504,-3.6895,-3.694,-3.6967,-3.703,-3.7065,-3.7113,-3.7139,-3.7175,-3.7211,-3.7271,-3.731,-3.7342,-3.7388,-3.7441,-3.7484,-3.7498,-3.7514,-3.751,-3.7526,-3.752,-3.7521,-3.7522,-3.7514,-3.7513,-3.7513,-3.7529,-3.7529,-3.7529]},{"header":{"parameterUnit":"m.s-1","parameterCategory":1,"la1":30.2991,"la2":30.254,"lo1":-89.0895,"lo2":-89.0444,"dy":0.0017,"dx":0.0017,"nx":28,"ny":28,"refTime":"2025-01-04T09:00:00:Z","depth":0,"parameterNumber":3,"parameterNumberName":"V-component_of_WINDS"},"data":[0,0,0,0,0,0,0,0,0,0,0,0,0,0,0,0,0,0,0,0,0,0,0,0,0,0,0,0,0,0,0,0,0,0,0,0,0,0,0,0,0,0,0,0,0,0,0,0,0,0,0,0,0,0,0,0,0,0,4.979,4.979,0,4.983,4.983,4.983,4.9805,4.9804,4.9803,4.9802,4.9842,4.9845,4.9847,0,0,0,0,0,0,0,0,0,0,0,0,0,4.9695,4.9696,4.979,4.979,4.9791,4.9829,4.983,4.9831,4.9805,4.9804,4.9803,4.9801,4.9842,4.9844,4.9847,0,0,0,0,0,0,0,0,0,0,0,0,0,4.9735,4.9697,4.979,4.9783,4.9783,4.9829,4.983,4.9831,4.9806,4.9804,4.9802,4.98,4.9841,4.9844,4.9847,4.9903,0,0,4.9857,4.9859,0,0,0,0,0,0,0,0,4.9733,4.9739,4.9783,4.9783,4.9783,4.9811,4.9811,4.9855,4.9806,4.9797,4.9802,4.98,4.9833,4.9837,4.9848,4.9905,4.9906,4.9858,4.986,4.9861,4.9862,0,0,0,0,0,0,0,4.973,4.9737,4.9805,4.9784,4.9784,4.9779,4.9782,4.9819,4.9825,4.9798,4.9796,4.9801,4.9833,4.9845,4.9849,4.9907,4.9857,4.986,4.9862,4.9864,5.0015,5.0017,0,0,0,0,0,0,4.9728,4.9735,4.9804,4.9807,4.9753,4.9782,4.9786,4.9804,4.9824,4.9825,4.9802,4.98,4.9841,4.9845,4.985,4.992,4.9861,4.9864,4.9866,5.0013,5.0016,5.0018,0,0,0,0,0,0,4.9726,4.9734,4.9803,4.977,4.9779,4.9785,4.9805,4.9805,4.9818,4.9828,4.9829,4.9814,4.9839,4.9846,4.9891,4.9921,4.9865,4.9868,5.0011,5.0014,5.0017,5.0058,0,0,0,0,0,0,4.9723,4.9734,4.9754,4.9771,4.978,4.9842,4.9807,4.9807,4.9823,4.982,4.9839,4.984,4.9838,4.9886,4.9894,4.9925,4.9871,5.0008,5.0012,5.0016,5.0054,5.0062,5.0069,0,0,0,0,0,4.972,4.9763,4.9755,4.9764,4.9806,4.9844,4.9849,4.9846,4.9826,4.9847,4.9854,4.984,4.9916,4.9891,4.99,4.9932,5.0006,5.0011,5.0016,5.0051,5.006,5.0069,0,0,0,0,0,0,4.9749,4.9765,4.9756,4.9806,4.9824,4.9839,4.9866,4.9856,4.988,4.9876,4.9871,4.9875,4.9924,4.9931,4.9903,4.9989,4.9958,4.9965,4.9982,4.9991,4.9998,4.9996,4.9874,0,0,0,0,0,4.9761,4.979,4.9802,4.9845,4.9855,4.9859,4.9875,4.9872,4.989,4.9897,4.9907,4.9925,4.9954,4.9972,4.9999,5.0054,5.006,5.0081,5.0088,5.0094,5.0101,5.0135,5.0145,5.0033,5.0033,5.0033,0,0,4.9786,4.9799,4.9817,4.9851,4.9865,4.9896,4.9865,4.9898,4.9922,4.9902,4.9946,4.9954,4.9974,5.0026,5.0049,5.0035,5.0133,5.01,5.0105,5.0108,5.0141,5.0151,5.0161,5.0037,5.0036,5.0035,0,0,4.985,4.986,4.9899,4.9914,4.9935,4.9938,4.9947,4.9965,4.997,5.0014,5.0001,5.0029,5.0077,5.0093,5.0108,5.018,5.0169,5.0189,5.0229,5.0262,5.0271,5.0279,5.0308,5.0318,5.0195,5.0195,5.0195,0,4.9879,4.9925,4.992,4.9956,4.9973,4.9957,4.9997,5.0011,5.004,5.0052,5.0035,5.0098,5.011,5.0167,5.0185,5.0196,5.0209,5.0187,5.027,5.0278,5.0285,5.0313,5.0323,5.0197,5.0197,5.0197,5.0197,0,4.9961,4.9994,5.0022,5.0052,5.0072,5.0109,5.0112,5.0133,5.0128,5.0134,5.0181,5.0195,5.0226,5.0239,5.0234,5.0297,5.0287,5.027,5.024,5.0298,5.0324,5.0335,5.0201,5.02,5.0199,5.0199,0,0,5.0043,5.0072,5.0083,5.0097,5.012,5.0146,5.0184,5.0215,5.0234,5.0254,5.0288,5.0331,5.0316,5.0333,5.033,5.0358,5.0419,5.0338,5.0338,5.0355,5.0493,5.0508,5.0521,5.0411,5.0413,5.0415,5.0493,0,5.011,5.0177,5.0176,5.0238,5.027,5.0256,5.029,5.0309,5.0315,5.0344,5.0351,5.0383,5.0359,5.0369,5.0397,5.0406,5.0448,5.04,5.0445,5.0446,5.0443,5.0534,5.0549,5.0622,5.0503,5.0504,5.0505,0,5.0197,5.0223,5.0289,5.031,5.0324,5.0354,5.0384,5.0411,5.0432,5.0435,5.0456,5.0449,5.049,5.0457,5.0515,5.0483,5.0501,5.0508,5.0511,5.0517,5.0481,5.0545,5.0645,5.0657,5.0521,5.052,5.0519,0,5.0255,5.0305,5.0352,5.0365,5.039,5.0412,5.0424,5.0444,5.0464,5.049,5.0503,5.0533,5.0551,5.0575,5.0578,5.0553,5.0637,5.0604,5.0643,5.0643,5.0662,5.0662,5.0769,5.067,5.0669,5.0669,5.0669,0,5.0331,5.0373,5.0379,5.0408,5.0456,5.0454,5.0501,5.0511,5.0529,5.0562,5.055,5.0581,5.0581,5.0613,5.0615,5.0664,5.0671,5.0676,5.0677,5.0679,5.0679,5.0693,5.0689,5.0672,5.0671,5.0671,5.067,0,5.0404,5.0409,5.0461,5.0481,5.0487,5.0522,5.054,5.0569,5.0575,5.0616,5.0626,5.0635,5.0672,5.0677,5.0719,5.0721,5.0782,5.0775,5.0775,5.0775,5.0815,5.0812,5.0937,5.0955,5.0841,5.0842,5.0843,0,5.0454,5.0487,5.0511,5.0532,5.0546,5.0579,5.06,5.06,5.0622,5.0652,5.0678,5.0714,5.0743,5.0803,5.0814,5.0848,5.0844,5.0886,5.0849,5.0852,5.0849,5.0848,5.0853,5.0894,5.0895,5.0896,5.0897,0,5.0544,5.0545,5.0575,5.0608,5.0633,5.0658,5.0682,5.07,5.0703,5.0729,5.0768,5.079,5.0835,5.0872,5.0906,5.0919,5.091,5.0908,5.0919,5.0923,5.0923,5.0927,5.0798,5.0905,5.0905,5.0904,5.0903,5.0903,5.0609,5.0639,5.0662,5.0697,5.0715,5.0738,5.0767,5.0778,5.081,5.0847,5.0845,5.0888,5.0911,5.0956,5.0971,5.1006,5.0993,5.1008,5.1013,5.1017,5.1023,5.0915,5.1012,5.1011,5.1011,5.1011,5.1011,0,5.0701,5.0716,5.0748,5.0782,5.0811,5.0799,5.0825,5.085,5.0888,5.0911,5.094,5.0986,5.1023,5.1038,5.1074,5.1099,5.1096,5.1109,5.1109,5.1113,5.1031,5.1019,5.1111,5.1111,5.1111,5.1111,5.1111,5.1111,5.0752,5.0803,5.0808,5.0868,5.0882,5.0925,5.0941,5.0964,5.0982,5.1034,5.1065,5.1074,5.1095,5.1133,5.1167,5.117,5.1186,5.1202,5.1204,5.1128,5.1118,5.1108,5.1097,5.1204,5.1204,5.1283,5.1283,5.1284]}]]